CTN1771 LDZD-LDZA

Flight info

Callsign CTN1771
Flight time 0h 28m
Altitude 20000
Route RAVNA1U RAVNA L607 ULPIN M986 KULEN/N0395F190 M986 KOTOR KOTOR2X
Aircraft A319/M-SDE3FGHIRWY/LB1

Departure

Time 2026-04-25 14:24
Airport Zadar Airport (LDZD)

Arrival

Time 2026-04-25 14:52
Airport Zagreb Franjo Tuđman International Airport (LDZA)
Time Latitude Longitude Altitude Speed Heading
2026-04-25 14:03 44.09591 15.35471 259 ft 0 kts 268°
2026-04-25 14:13 44.09592 15.35476 259 ft 2 kts 274°
2026-04-25 14:13 44.09592 15.35502 259 ft 3 kts 266°
2026-04-25 14:13 44.09597 15.35526 259 ft 2 kts 243°
2026-04-25 14:14 44.09609 15.35540 260 ft 2 kts 166°
2026-04-25 14:14 44.09610 15.35540 260 ft 0 kts 166°
2026-04-25 14:18 44.09607 15.35541 259 ft 2 kts 166°
2026-04-25 14:18 44.09582 15.35544 259 ft 5 kts 176°
2026-04-25 14:19 44.09533 15.35547 257 ft 9 kts 181°
2026-04-25 14:19 44.09461 15.35547 255 ft 12 kts 176°
2026-04-25 14:19 44.09384 15.35598 253 ft 14 kts 133°
2026-04-25 14:19 44.09330 15.35681 252 ft 0 kts 130°
2026-04-25 14:23 44.09322 15.35693 252 ft 3 kts 130°
2026-04-25 14:23 44.09299 15.35730 251 ft 8 kts 135°
2026-04-25 14:24 44.09242 15.35715 250 ft 10 kts 220°
2026-04-25 14:24 44.09128 15.35576 252 ft 56 kts 221°
2026-04-25 14:24 44.08603 15.34929 262 ft 141 kts 222°
2026-04-25 14:24 44.07862 15.33996 953 ft 141 kts 223°
2026-04-25 14:25 44.07125 15.33093 1800 ft 141 kts 223°
2026-04-25 14:25 44.06383 15.32191 2454 ft 146 kts 223°
2026-04-25 14:25 44.05568 15.31194 2793 ft 167 kts 223°
2026-04-25 14:25 44.05276 15.30837 2938 ft 175 kts 223°
2026-04-25 14:26 44.03571 15.28734 3597 ft 216 kts 225°
2026-04-25 14:26 44.02749 15.26882 4051 ft 240 kts 257°
2026-04-25 14:26 44.02861 15.24541 4643 ft 259 kts 293°
2026-04-25 14:26 44.04056 15.22605 5559 ft 269 kts 325°
2026-04-25 14:27 44.05652 15.21273 6592 ft 273 kts 331°
2026-04-25 14:27 44.07339 15.20027 7580 ft 276 kts 333°
2026-04-25 14:27 44.09052 15.18810 8564 ft 278 kts 333°
2026-04-25 14:27 44.10783 15.17578 9558 ft 281 kts 333°
2026-04-25 14:28 44.12534 15.16312 10369 ft 290 kts 332°
2026-04-25 14:28 44.14393 15.14948 10714 ft 314 kts 332°
2026-04-25 14:28 44.16393 15.13460 11026 ft 337 kts 331°
2026-04-25 14:28 44.18491 15.11889 11622 ft 347 kts 331°
2026-04-25 14:29 44.20629 15.10287 12377 ft 352 kts 331°
2026-04-25 14:29 44.22800 15.08657 13151 ft 356 kts 331°
2026-04-25 14:29 44.24992 15.07008 13910 ft 360 kts 330°
2026-04-25 14:29 44.27217 15.05336 14586 ft 365 kts 330°
2026-04-25 14:30 44.29458 15.03651 15264 ft 368 kts 330°
2026-04-25 14:30 44.34156 15.00103 15729 ft 402 kts 330°
2026-04-25 14:30 44.36666 14.98211 15902 ft 416 kts 330°
2026-04-25 14:31 44.39236 14.96274 16317 ft 422 kts 330°
2026-04-25 14:31 44.41831 14.94316 16816 ft 425 kts 330°
2026-04-25 14:31 44.44443 14.92344 17329 ft 428 kts 330°
2026-04-25 14:31 44.47078 14.90352 17807 ft 431 kts 330°
2026-04-25 14:32 44.49724 14.88348 18282 ft 434 kts 330°
2026-04-25 14:32 44.52375 14.86302 18694 ft 436 kts 327°
2026-04-25 14:32 44.54811 14.83760 19099 ft 437 kts 319°
2026-04-25 14:32 44.57144 14.81008 19510 ft 439 kts 319°
2026-04-25 14:33 44.59487 14.78244 19886 ft 441 kts 319°
2026-04-25 14:33 44.61840 14.75471 20028 ft 441 kts 319°
2026-04-25 14:33 44.64177 14.72774 20052 ft 427 kts 322°
2026-04-25 14:33 44.66751 14.70762 20051 ft 424 kts 336°
2026-04-25 14:34 44.69613 14.69749 20050 ft 427 kts 352°
2026-04-25 14:34 44.72588 14.69837 20049 ft 430 kts
2026-04-25 14:34 44.75468 14.71046 20051 ft 435 kts 22°
2026-04-25 14:34 44.78053 14.73275 20049 ft 438 kts 34°
2026-04-25 14:35 44.80515 14.75820 20045 ft 438 kts 34°
2026-04-25 14:35 44.82967 14.78369 20046 ft 439 kts 34°
2026-04-25 14:35 44.85423 14.80935 20046 ft 439 kts 34°
2026-04-25 14:35 44.87876 14.83496 20044 ft 439 kts 34°
2026-04-25 14:36 44.90338 14.86052 19973 ft 437 kts 34°
2026-04-25 14:36 44.92762 14.88561 19659 ft 428 kts 34°
2026-04-25 14:36 44.95155 14.91039 18996 ft 425 kts 34°
2026-04-25 14:36 44.97527 14.93502 18382 ft 422 kts 34°
2026-04-25 14:37 44.99882 14.95947 17731 ft 418 kts 34°
2026-04-25 14:37 45.02215 14.98367 17154 ft 414 kts 33°
2026-04-25 14:37 45.04524 15.00768 16593 ft 410 kts 34°
2026-04-25 14:37 45.06804 15.03157 16036 ft 406 kts 34°
2026-04-25 14:38 45.09064 15.05525 15453 ft 403 kts 34°
2026-04-25 14:38 45.11304 15.07875 14887 ft 399 kts 34°
2026-04-25 14:38 45.13529 15.10213 14292 ft 397 kts 34°
2026-04-25 14:38 45.15729 15.12547 13663 ft 396 kts 35°
2026-04-25 14:39 45.17719 15.15242 13003 ft 395 kts 46°
2026-04-25 14:39 45.18955 15.17204 12560 ft 393 kts 46°
2026-04-25 14:39 45.20766 15.20074 11911 ft 388 kts 46°
2026-04-25 14:39 45.22555 15.22913 11237 ft 384 kts 45°
2026-04-25 14:40 45.23726 15.24773 10922 ft 378 kts 47°
2026-04-25 14:40 45.25944 15.28301 10737 ft 339 kts 46°
2026-04-25 14:40 45.27451 15.30702 10606 ft 314 kts 46°
2026-04-25 14:40 45.28868 15.32958 10293 ft 299 kts 46°
2026-04-25 14:41 45.30239 15.35131 10007 ft 293 kts 46°
2026-04-25 14:41 45.31612 15.37305 9846 ft 291 kts 46°
2026-04-25 14:41 45.32945 15.39417 9725 ft 290 kts 46°
2026-04-25 14:41 45.34289 15.41548 9592 ft 289 kts 46°
2026-04-25 14:42 45.35631 15.43673 9458 ft 288 kts 46°
2026-04-25 14:42 45.36526 15.45093 9362 ft 282 kts 46°
2026-04-25 14:42 45.38270 15.47871 9002 ft 287 kts 47°
2026-04-25 14:42 45.39594 15.49988 8624 ft 286 kts 46°
2026-04-25 14:43 45.40917 15.52105 8235 ft 285 kts 47°
2026-04-25 14:43 45.42234 15.54214 7843 ft 285 kts 46°
2026-04-25 14:43 45.43550 15.56324 7454 ft 284 kts 47°
2026-04-25 14:43 45.44831 15.58469 7062 ft 284 kts 50°
2026-04-25 14:44 45.46034 15.60692 6684 ft 282 kts 52°
2026-04-25 14:44 45.47196 15.62939 6298 ft 280 kts 53°
2026-04-25 14:44 45.48330 15.65160 5906 ft 274 kts 53°
2026-04-25 14:44 45.49436 15.67324 5543 ft 268 kts 53°
2026-04-25 14:45 45.50515 15.69425 5174 ft 262 kts 53°
2026-04-25 14:45 45.51587 15.71502 4825 ft 257 kts 53°
2026-04-25 14:45 45.52588 15.73589 4468 ft 252 kts 58°
2026-04-25 14:45 45.53609 15.75595 4129 ft 248 kts 49°
2026-04-25 14:46 45.54740 15.77348 3979 ft 229 kts 45°
2026-04-25 14:46 45.55796 15.78919 3984 ft 212 kts 45°
2026-04-25 14:46 45.56791 15.80409 3982 ft 205 kts 45°
2026-04-25 14:46 45.57775 15.81889 3994 ft 206 kts 45°
2026-04-25 14:47 45.58759 15.83370 4001 ft 206 kts 45°
2026-04-25 14:47 45.59408 15.84348 3995 ft 205 kts 45°
2026-04-25 14:47 45.60722 15.86330 3839 ft 204 kts 45°
2026-04-25 14:47 45.61678 15.87772 3567 ft 199 kts 46°
2026-04-25 14:48 45.62606 15.89174 3325 ft 189 kts 46°
2026-04-25 14:48 45.63489 15.90506 3075 ft 179 kts 47°
2026-04-25 14:48 45.64314 15.91752 2862 ft 168 kts 47°
2026-04-25 14:48 45.65097 15.92936 2644 ft 160 kts 47°
2026-04-25 14:49 45.65831 15.94047 2448 ft 148 kts 47°
2026-04-25 14:49 45.66522 15.95091 2260 ft 142 kts 47°
2026-04-25 14:49 45.67209 15.96130 2057 ft 140 kts 47°
2026-04-25 14:49 45.67867 15.97127 1875 ft 139 kts 47°
2026-04-25 14:50 45.68540 15.98147 1696 ft 139 kts 47°
2026-04-25 14:50 45.69195 15.99146 1524 ft 138 kts 48°
2026-04-25 14:50 45.69853 16.00148 1316 ft 137 kts 47°
2026-04-25 14:50 45.70506 16.01128 1139 ft 135 kts 47°
2026-04-25 14:51 45.71146 16.02100 993 ft 133 kts 47°
2026-04-25 14:51 45.71781 16.03061 805 ft 132 kts 46°
2026-04-25 14:51 45.72400 16.04011 643 ft 130 kts 46°
2026-04-25 14:51 45.73022 16.04944 462 ft 129 kts 44°
2026-04-25 14:52 45.73620 16.05852 363 ft 113 kts 46°
2026-04-25 14:52 45.74065 16.06528 361 ft 69 kts 46°
2026-04-25 14:52 45.74339 16.06944 359 ft 54 kts 47°
2026-04-25 14:52 45.74503 16.07197 358 ft 49 kts 47°
2026-04-25 14:53 45.74674 16.07462 358 ft 18 kts 59°
2026-04-25 14:53 45.74615 16.07595 358 ft 17 kts 134°
2026-04-25 14:53 45.74529 16.07713 359 ft 17 kts 137°
2026-04-25 14:53 45.74447 16.07822 359 ft 15 kts 135°
2026-04-25 14:54 45.74373 16.07907 362 ft 13 kts 169°
2026-04-25 14:54 45.74304 16.07836 360 ft 12 kts 227°
2026-04-25 14:54 45.74246 16.07822 363 ft 9 kts 135°
2026-04-25 14:54 45.74210 16.07873 359 ft 3 kts 140°
2026-04-25 14:55 45.74204 16.07880 359 ft 0 kts 137°
2026-04-25 15:49 52.36248 13.50680 156 ft 0 kts 69°